[[{"header":{"parameterUnit":"m.s-1","parameterCategory":1,"la1":30.2991,"la2":30.254,"lo1":-89.0895,"lo2":-89.0444,"dy":0.0017,"dx":0.0017,"nx":28,"ny":28,"refTime":"2025-02-25T03:00:00:Z","depth":0,"parameterNumber":2,"parameterNumberName":"U-component_of_WINDS"},"data":[0,0,0,0,0,0,0,0,0,0,0,0,0,0,0,0,0,0,0,0,0,0,0,0,0,0,0,0,0,0,0,0,0,0,0,0,0,0,0,0,0,0,0,0,0,0,0,0,0,0,0,0,0,0,0,0,0,0,0.2451,0.2451,0,0.2472,0.2473,0.2473,0.2489,0.2489,0.2489,0.2489,0.2511,0.2511,0.2512,0,0,0,0,0,0,0,0,0,0,0,0,0,0.2424,0.2424,0.2451,0.2451,0.2451,0.2472,0.2473,0.2473,0.2489,0.2489,0.2489,0.2489,0.2511,0.2511,0.2512,0,0,0,0,0,0,0,0,0,0,0,0,0,0.2439,0.2424,0.2451,0.2462,0.2463,0.2472,0.2473,0.2473,0.2489,0.2489,0.2489,0.249,0.2511,0.2511,0.2512,0.2512,0,0,0.2514,0.2514,0,0,0,0,0,0,0,0,0.2438,0.244,0.246,0.2461,0.2463,0.2478,0.2471,0.2486,0.2489,0.2479,0.2489,0.249,0.25,0.2501,0.2505,0.2513,0.2513,0.2514,0.2514,0.2515,0.2515,0,0,0,0,0,0,0,0.2437,0.2439,0.2459,0.246,0.2462,0.2466,0.2468,0.2474,0.2488,0.248,0.2481,0.2484,0.2501,0.2504,0.2506,0.2514,0.2514,0.2514,0.2515,0.2515,0.2523,0.2523,0,0,0,0,0,0,0.2435,0.2438,0.2459,0.246,0.2451,0.2466,0.2469,0.2473,0.2488,0.249,0.2483,0.2484,0.2503,0.2505,0.2506,0.2507,0.2515,0.2515,0.2516,0.2523,0.2523,0.2523,0,0,0,0,0,0,0.2434,0.2436,0.2458,0.245,0.2453,0.2466,0.2471,0.2473,0.2477,0.249,0.2493,0.2484,0.2503,0.2505,0.251,0.2508,0.2515,0.2516,0.2523,0.2523,0.2523,0.2509,0,0,0,0,0,0,0.2433,0.2436,0.2436,0.2449,0.2453,0.2461,0.2471,0.2474,0.2478,0.2479,0.2492,0.2495,0.2504,0.2509,0.2511,0.2509,0.2517,0.2524,0.2523,0.2523,0.2509,0.2508,0.2507,0,0,0,0,0,0.2432,0.2431,0.2436,0.2438,0.2453,0.2461,0.2463,0.2474,0.2478,0.2478,0.2487,0.2494,0.2508,0.251,0.2512,0.251,0.2524,0.2523,0.2523,0.251,0.2508,0.2507,0,0,0,0,0,0,0.2416,0.2432,0.2438,0.2441,0.245,0.2464,0.2464,0.2471,0.2478,0.2479,0.2492,0.2495,0.2499,0.2505,0.2506,0.2511,0.2517,0.2517,0.2506,0.2505,0.2504,0.2502,0.2517,0,0,0,0,0,0.2412,0.2417,0.2432,0.2433,0.2437,0.245,0.2454,0.2461,0.247,0.2474,0.2483,0.2492,0.2498,0.2502,0.2509,0.2511,0.2514,0.2511,0.2509,0.2508,0.2508,0.251,0.2509,0.2521,0.2521,0.2521,0,0,0.2406,0.2416,0.2418,0.243,0.2438,0.2443,0.2453,0.2457,0.2461,0.2475,0.248,0.2487,0.2497,0.2501,0.2503,0.2507,0.2505,0.2508,0.2507,0.2507,0.251,0.2508,0.2507,0.2521,0.2521,0.2521,0,0,0.2396,0.2404,0.2406,0.2413,0.2425,0.2433,0.2434,0.2447,0.2453,0.2458,0.2469,0.2474,0.2484,0.2492,0.2497,0.2491,0.2498,0.2493,0.2486,0.2487,0.2486,0.2486,0.2484,0.2483,0.2493,0.2493,0.2492,0,0.2386,0.2394,0.2406,0.241,0.2416,0.2429,0.2431,0.2438,0.245,0.2454,0.2458,0.2472,0.248,0.2486,0.2484,0.2488,0.2489,0.2491,0.2486,0.2485,0.2484,0.2483,0.2482,0.2492,0.2492,0.2492,0.2492,0,0.2381,0.2387,0.2387,0.2399,0.2405,0.2408,0.2421,0.2425,0.2433,0.2441,0.2447,0.2457,0.2466,0.2469,0.2476,0.2476,0.2477,0.2483,0.249,0.2482,0.2481,0.248,0.2491,0.2491,0.2491,0.2491,0,0,0.236,0.238,0.238,0.2386,0.24,0.2405,0.2409,0.2419,0.2422,0.2431,0.2435,0.2444,0.245,0.2456,0.2464,0.2466,0.2461,0.2472,0.2472,0.2469,0.2462,0.2457,0.2456,0.2466,0.2466,0.2466,0.2461,0,0.2352,0.236,0.2372,0.2376,0.2382,0.2395,0.2399,0.2408,0.2416,0.2422,0.2432,0.2438,0.2446,0.2449,0.2452,0.2461,0.246,0.2462,0.247,0.247,0.2466,0.2455,0.245,0.2444,0.2461,0.2461,0.246,0,0.2343,0.2352,0.2357,0.2372,0.2374,0.2378,0.2388,0.2393,0.2404,0.241,0.2417,0.2427,0.2432,0.2438,0.2446,0.2448,0.2452,0.2457,0.2457,0.2458,0.2464,0.2455,0.2443,0.2442,0.246,0.246,0.246,0,0.2327,0.234,0.2345,0.235,0.2367,0.2369,0.2376,0.2388,0.2393,0.2402,0.2406,0.2415,0.242,0.2427,0.2439,0.2442,0.2446,0.2453,0.2451,0.2451,0.245,0.245,0.2438,0.2454,0.2454,0.2454,0.2454,0,0.2317,0.2319,0.2338,0.2341,0.2345,0.2359,0.2362,0.237,0.238,0.2385,0.2398,0.2402,0.2418,0.2424,0.2433,0.2439,0.2441,0.2446,0.2448,0.2444,0.2444,0.2447,0.2447,0.2454,0.2454,0.2454,0.2454,0,0.2298,0.2311,0.2318,0.2334,0.2338,0.234,0.2354,0.2357,0.2367,0.2373,0.2376,0.2391,0.2399,0.2412,0.2424,0.243,0.2434,0.2438,0.243,0.2431,0.2428,0.2428,0.2417,0.2417,0.2433,0.2433,0.2433,0,0.229,0.2293,0.231,0.2314,0.2321,0.2328,0.2334,0.2348,0.2353,0.2367,0.2369,0.2378,0.2386,0.2399,0.2411,0.2421,0.2425,0.2421,0.2426,0.2423,0.2425,0.2424,0.2424,0.2419,0.2419,0.2418,0.2418,0,0.2275,0.2281,0.2289,0.23,0.2306,0.2315,0.2324,0.2327,0.2344,0.2349,0.2358,0.2365,0.2377,0.2387,0.2398,0.2406,0.2415,0.2417,0.2417,0.2412,0.2407,0.241,0.2426,0.2416,0.2417,0.2417,0.2417,0.2417,0.2261,0.2264,0.2277,0.2285,0.2294,0.2303,0.2307,0.2318,0.2326,0.2337,0.2346,0.2354,0.2366,0.2383,0.239,0.2397,0.2401,0.2401,0.2401,0.24,0.2399,0.2407,0.2399,0.2399,0.2399,0.2399,0.2399,0,0.2246,0.2255,0.2263,0.2276,0.2283,0.2292,0.2303,0.2308,0.2315,0.2326,0.2334,0.2345,0.2354,0.2368,0.2378,0.2381,0.2386,0.2384,0.2383,0.2385,0.2395,0.2394,0.238,0.238,0.238,0.238,0.238,0.238,0.2238,0.2244,0.2252,0.2263,0.2272,0.2281,0.2286,0.2295,0.2304,0.2315,0.2323,0.2332,0.2344,0.2356,0.2365,0.2369,0.2372,0.2368,0.2373,0.2382,0.2384,0.2386,0.2385,0.2369,0.2369,0.2363,0.2363,0.2362]},{"header":{"parameterUnit":"m.s-1","parameterCategory":1,"la1":30.2991,"la2":30.254,"lo1":-89.0895,"lo2":-89.0444,"dy":0.0017,"dx":0.0017,"nx":28,"ny":28,"refTime":"2025-02-25T03:00:00:Z","depth":0,"parameterNumber":3,"parameterNumberName":"V-component_of_WINDS"},"data":[0,0,0,0,0,0,0,0,0,0,0,0,0,0,0,0,0,0,0,0,0,0,0,0,0,0,0,0,0,0,0,0,0,0,0,0,0,0,0,0,0,0,0,0,0,0,0,0,0,0,0,0,0,0,0,0,0,0,-1.0302,-1.0303,0,-1.0413,-1.0415,-1.0416,-1.0476,-1.0476,-1.0476,-1.0476,-1.0589,-1.0592,-1.0595,0,0,0,0,0,0,0,0,0,0,0,0,0,-1.0141,-1.0144,-1.0302,-1.0303,-1.0305,-1.0413,-1.0415,-1.0416,-1.0476,-1.0476,-1.0476,-1.0476,-1.0588,-1.0591,-1.0595,0,0,0,0,0,0,0,0,0,0,0,0,0,-1.0227,-1.0145,-1.0302,-1.0348,-1.0353,-1.0413,-1.0415,-1.0417,-1.0476,-1.0476,-1.0476,-1.0476,-1.0587,-1.0591,-1.0595,-1.0618,0,0,-1.0608,-1.061,0,0,0,0,0,0,0,0,-1.0222,-1.0233,-1.034,-1.0345,-1.0351,-1.0431,-1.0399,-1.0484,-1.0476,-1.0429,-1.0476,-1.0476,-1.0536,-1.0545,-1.0565,-1.0623,-1.0628,-1.0609,-1.0611,-1.0613,-1.0614,0,0,0,0,0,0,0,-1.0216,-1.0229,-1.0346,-1.0341,-1.0348,-1.0363,-1.0375,-1.0416,-1.048,-1.0433,-1.0438,-1.045,-1.0539,-1.0561,-1.0568,-1.0629,-1.0609,-1.0612,-1.0615,-1.0617,-1.0713,-1.0713,0,0,0,0,0,0,-1.0203,-1.0223,-1.0343,-1.0349,-1.0286,-1.0365,-1.0379,-1.0405,-1.048,-1.0491,-1.045,-1.0453,-1.0553,-1.0563,-1.0572,-1.0605,-1.0613,-1.0617,-1.062,-1.0713,-1.0713,-1.0713,0,0,0,0,0,0,-1.0199,-1.0213,-1.0338,-1.0288,-1.0305,-1.0368,-1.0396,-1.0407,-1.0429,-1.0492,-1.0504,-1.046,-1.0554,-1.0566,-1.0606,-1.0609,-1.0619,-1.0623,-1.0713,-1.0713,-1.0713,-1.0668,0,0,0,0,0,0,-1.0195,-1.0211,-1.0221,-1.0287,-1.0307,-1.037,-1.0396,-1.0409,-1.0436,-1.0441,-1.0505,-1.0516,-1.0555,-1.06,-1.0611,-1.0615,-1.0626,-1.0713,-1.0713,-1.0713,-1.067,-1.0667,-1.0664,0,0,0,0,0,-1.0189,-1.0203,-1.0221,-1.0235,-1.032,-1.037,-1.0381,-1.0426,-1.0436,-1.0446,-1.0487,-1.0514,-1.0607,-1.0603,-1.0616,-1.0622,-1.0713,-1.0713,-1.0713,-1.0671,-1.0667,-1.0664,0,0,0,0,0,0,-1.0134,-1.0212,-1.0233,-1.0269,-1.0313,-1.038,-1.0394,-1.0421,-1.0462,-1.0464,-1.0518,-1.0532,-1.0567,-1.0599,-1.0593,-1.0649,-1.0663,-1.0666,-1.0627,-1.0624,-1.0621,-1.0612,-1.063,0,0,0,0,0,-1.0126,-1.016,-1.0227,-1.0253,-1.0274,-1.033,-1.0353,-1.0384,-1.0431,-1.045,-1.0494,-1.0538,-1.0578,-1.0602,-1.0642,-1.0675,-1.069,-1.0685,-1.0683,-1.068,-1.0681,-1.0702,-1.0701,-1.0713,-1.0713,-1.0713,0,0,-1.011,-1.0157,-1.0176,-1.0243,-1.028,-1.0315,-1.0345,-1.038,-1.0406,-1.0455,-1.0496,-1.053,-1.0583,-1.062,-1.0638,-1.0647,-1.0682,-1.068,-1.0677,-1.068,-1.0702,-1.0701,-1.07,-1.0713,-1.0713,-1.0713,0,0,-1.0099,-1.0138,-1.0164,-1.0201,-1.0258,-1.0295,-1.0301,-1.0365,-1.039,-1.0432,-1.047,-1.0502,-1.0569,-1.0605,-1.0633,-1.0637,-1.0664,-1.0648,-1.0633,-1.0653,-1.0652,-1.0652,-1.0654,-1.0654,-1.065,-1.065,-1.065,0,-1.0072,-1.0126,-1.0174,-1.0208,-1.0236,-1.0283,-1.0311,-1.0344,-1.041,-1.0429,-1.0438,-1.0524,-1.0563,-1.0609,-1.0611,-1.0631,-1.064,-1.0641,-1.0648,-1.0648,-1.0649,-1.0651,-1.0652,-1.0647,-1.0648,-1.0648,-1.0648,0,-1.009,-1.0127,-1.0141,-1.0205,-1.0236,-1.0265,-1.0319,-1.0344,-1.0373,-1.0409,-1.0452,-1.0501,-1.0552,-1.0565,-1.0593,-1.0616,-1.062,-1.0638,-1.0654,-1.0645,-1.0648,-1.065,-1.0644,-1.0645,-1.0646,-1.0646,0,0,-1.0046,-1.0138,-1.0142,-1.0172,-1.0239,-1.0268,-1.0301,-1.0351,-1.0372,-1.0416,-1.0445,-1.0502,-1.0519,-1.055,-1.0583,-1.06,-1.0602,-1.0616,-1.0618,-1.0612,-1.0631,-1.0618,-1.0618,-1.062,-1.062,-1.062,-1.0627,0,-1.0045,-1.0106,-1.0151,-1.0195,-1.023,-1.0276,-1.0304,-1.0348,-1.0384,-1.0419,-1.0458,-1.0497,-1.0517,-1.0536,-1.0555,-1.0597,-1.0606,-1.0597,-1.0648,-1.0649,-1.0633,-1.062,-1.0605,-1.0609,-1.0629,-1.0629,-1.0629,0,-1.0051,-1.0095,-1.0142,-1.0206,-1.0223,-1.0248,-1.0299,-1.0331,-1.0382,-1.0407,-1.0442,-1.0477,-1.0513,-1.0526,-1.0578,-1.0571,-1.0594,-1.0618,-1.0619,-1.0626,-1.0638,-1.0626,-1.0611,-1.0612,-1.0632,-1.0632,-1.0631,0,-1.0015,-1.0086,-1.0124,-1.0148,-1.0224,-1.024,-1.0272,-1.0324,-1.0352,-1.0396,-1.0415,-1.0463,-1.0489,-1.0525,-1.0572,-1.0576,-1.0619,-1.0635,-1.0641,-1.064,-1.0648,-1.0647,-1.0637,-1.0662,-1.0662,-1.0662,-1.0662,0,-1.0009,-1.0036,-1.0109,-1.0132,-1.0165,-1.0217,-1.0247,-1.0283,-1.0329,-1.036,-1.0403,-1.0431,-1.0491,-1.0526,-1.0563,-1.0601,-1.0612,-1.0634,-1.0643,-1.063,-1.0627,-1.0646,-1.0647,-1.0663,-1.0663,-1.0662,-1.0662,0,-0.9974,-1.0024,-1.0068,-1.0137,-1.0154,-1.0175,-1.0234,-1.0259,-1.0297,-1.0336,-1.0348,-1.0408,-1.0453,-1.0503,-1.0564,-1.0589,-1.0625,-1.0638,-1.0607,-1.0613,-1.0616,-1.0615,-1.0618,-1.0621,-1.0644,-1.0643,-1.0643,0,-0.9966,-0.9989,-1.006,-1.0084,-1.0116,-1.0154,-1.0184,-1.0236,-1.0265,-1.0326,-1.0343,-1.0391,-1.0432,-1.0501,-1.0551,-1.0598,-1.0613,-1.0611,-1.062,-1.0607,-1.0614,-1.0612,-1.0615,-1.0608,-1.0607,-1.0607,-1.0606,0,-0.9948,-0.9972,-1.0013,-1.0063,-1.0097,-1.0138,-1.0182,-1.0199,-1.026,-1.0291,-1.0337,-1.0369,-1.0432,-1.048,-1.0533,-1.0567,-1.0597,-1.0603,-1.0607,-1.0594,-1.0576,-1.0587,-1.06,-1.0603,-1.0603,-1.0603,-1.0604,-1.0604,-0.9927,-0.995,-1.0004,-1.0048,-1.0087,-1.0127,-1.0153,-1.0196,-1.0236,-1.0292,-1.032,-1.0367,-1.0419,-1.0494,-1.0527,-1.0564,-1.0574,-1.0579,-1.0581,-1.0581,-1.0578,-1.057,-1.0574,-1.0574,-1.0574,-1.0575,-1.0575,0,-0.9912,-0.9949,-0.999,-1.005,-1.0085,-1.0111,-1.0161,-1.0188,-1.0229,-1.0275,-1.0315,-1.0369,-1.0416,-1.0469,-1.052,-1.0539,-1.0555,-1.0551,-1.055,-1.0557,-1.0566,-1.0558,-1.0538,-1.0538,-1.0538,-1.0538,-1.0538,-1.0538,-0.9908,-0.9948,-0.9978,-1.0038,-1.0076,-1.0122,-1.0148,-1.0186,-1.0223,-1.0282,-1.0321,-1.0356,-1.0406,-1.046,-1.0504,-1.0519,-1.0535,-1.0528,-1.0546,-1.0553,-1.0556,-1.0559,-1.0552,-1.0531,-1.0531,-1.0534,-1.0534,-1.0534]}]]